Theta_e
327 326 324 332 337 338 339 339 340 340 341 340 339 339 337 334 330 329 329 333 337 336 337 337 336 336 335 335 335 335 335 335 334 333 328 317 315 310 310 308 307 306 306
327 327 326 325 325 334 337 337 337 340 340 340 339 340 339 338 335 331 330 329 333 336 337 337 337 337 337 336 336 335 335 334 334 331 327 323 311 310 310 308 306 306 305
326 326 327 326 326 326 326 330 331 334 337 340 340 340 341 340 338 335 331 329 329 334 336 337 338 337 337 336 336 335 334 334 333 329 326 311 310 309 308 308 307 306 306
326 327 326 326 326 326 326 328 330 332 336 340 340 340 340 340 339 338 336 332 330 331 334 334 338 336 336 336 335 335 335 334 333 329 327 316 310 309 309 307 307 308 306
325 326 325 326 326 326 327 329 332 333 335 339 340 340 341 340 340 340 339 336 333 332 333 336 334 334 334 335 336 336 333 333 330 319 318 311 310 311 314 313 309 308 307
324 325 325 325 325 326 327 330 333 335 337 339 340 340 340 341 341 341 340 340 339 338 337 336 336 334 335 335 334 334 334 330 318 317 314 310 310 310 311 312 310 307 308
326 326 326 328 329 328 328 328 333 336 338 339 340 340 341 341 341 341 342 342 342 340 340 339 337 335 335 335 335 334 334 323 320 312 313 311 311 312 309 307 309 312 307
327 328 329 330 329 328 328 328 329 331 336 338 340 341 342 341 341 340 341 342 342 340 338 338 338 335 336 336 335 334 330 321 314 314 312 311 312 310 309 308 309 307 307
328 328 328 327 327 327 327 327 327 327 329 329 329 328 329 329 324 324 330 338 340 337 337 336 337 338 336 336 335 331 325 320 312 313 311 310 310 307 310 311 307 306 309
326 327 327 327 328 328 328 328 328 327 323 322 321 321 322 324 325 324 324 325 328 333 337 334 337 335 335 335 334 327 322 317 313 310 310 309 311 310 310 308 304 305 307
326 327 326 326 327 327 328 328 328 324 323 323 322 322 324 324 325 325 325 325 329 333 336 335 336 335 334 332 329 324 317 314 311 311 311 310 310 309 309 305 301 304 304
323 323 323 324 325 326 327 328 328 326 325 326 324 324 323 325 325 326 326 326 327 332 333 335 334 333 332 331 326 321 314 312 310 311 310 310 310 310 308 301 301 305 306
321 320 321 322 322 325 326 327 328 327 326 326 326 326 326 326 326 326 325 325 326 330 334 334 333 331 330 329 324 317 315 311 310 310 310 310 309 309 307 300 302 302 303
322 324 324 323 323 324 325 327 328 327 326 326 326 326 328 328 327 327 326 325 326 329 332 331 332 331 330 324 319 317 313 309 311 310 310 309 309 310 300 301 302 302 302
323 324 324 324 324 324 325 326 327 327 327 327 327 327 327 329 328 328 328 328 328 329 330 331 331 330 324 320 318 315 309 310 310 309 308 308 309 305 300 301 303 302 301
324 324 324 325 325 324 325 325 325 325 325 325 326 328 329 329 327 327 327 328 326 330 331 332 330 324 321 319 318 313 309 310 309 308 306 307 308 299 300 302 302 302 302
321 323 324 325 325 325 325 325 325 325 326 326 325 325 328 329 327 328 329 328 327 328 332 332 325 321 319 316 313 310 309 307 306 306 307 306 302 299 301 301 301 302 302
319 322 323 324 324 324 325 325 325 325 325 325 324 324 329 330 329 328 325 327 328 331 332 327 321 318 316 311 309 309 308 305 305 305 303 299 299 299 300 301 300 301 301
315 316 316 318 321 323 323 323 323 322 322 322 323 323 323 323 323 323 323 323 326 330 328 322 318 316 310 308 306 305 303 304 304 301 298 299 300 299 300 299 299 299 300
315 316 316 316 317 318 318 319 320 320 320 320 320 320 319 319 319 321 324 325 324 327 323 318 315 308 306 304 302 302 302 303 300 298 298 299 299 299 299 298 298 298 298
316 316 316 315 314 314 315 316 316 315 315 314 314 314 314 314 315 316 318 321 322 319 317 313 306 306 302 301 300 301 301 300 299 298 299 298 298 298 297 298 298 298 298
311 312 314 315 315 315 315 314 314 313 313 312 312 313 314 314 315 316 315 315 318 318 313 307 305 301 300 300 300 300 300 298 298 298 298 297 297 298 298 298 298 298 299
310 309 311 310 307 307 309 311 311 312 312 312 310 310 310 311 312 313 314 315 316 313 307 303 301 300 299 300 300 299 299 299 298 298 297 298 298 298 297 297 298 298 298
309 308 308 306 305 305 306 309 310 310 309 308 308 308 309 309 309 309 310 309 306 304 302 300 299 299 300 299 298 300 299 299 298 297 297 297 297 297 296 295 296 298 298
307 306 306 306 305 305 307 309 309 308 307 306 307 307 306 306 306 305 304 304 302 301 299 299 299 300 299 298 298 299 299 298 297 296 296 296 296 296 295 295 296 298 298
306 306 305 304 304 305 306 306 305 305 305 305 304 304 303 303 302 301 300 299 300 300 300 299 298 297 297 296 299 298 298 297 296 295 295 295 295 294 294 295 296 296 296
Wind_Speed
24 25 33 48 53 51 50 48 48 46 43 42 40 38 34 33 34 33 33 33 33 32 33 34 34 33 34 35 34 32 32 33 33 31 30 24 22 18 14 10 10 7 8
29 30 27 28 39 54 53 49 49 50 48 47 44 41 36 36 35 35 35 34 35 36 37 37 37 37 38 37 36 35 36 38 36 30 28 23 19 15 15 12 8 6 9
31 29 31 27 30 36 44 46 44 46 49 50 48 45 42 39 38 36 37 37 37 37 37 37 38 38 39 41 39 38 40 41 39 36 27 7 8 10 14 10 13 10 13
23 26 26 27 31 32 36 43 43 45 49 52 51 48 46 43 40 37 36 37 39 38 38 38 39 41 42 43 44 42 40 44 46 35 25 21 25 13 8 10 12 14 17
15 11 20 25 32 33 38 43 46 47 49 50 50 48 48 44 41 37 34 34 34 35 40 41 38 38 41 43 45 45 37 47 44 20 20 21 24 21 20 17 13 20 22
7 5 12 19 24 29 36 39 43 44 45 47 46 46 46 44 41 39 37 34 34 34 36 38 40 35 39 43 47 45 40 38 9 19 20 27 21 16 13 16 22 26 29
8 5 8 9 11 15 21 25 28 30 33 35 38 40 40 40 38 38 39 39 38 36 35 35 36 35 38 40 48 44 45 29 15 20 23 23 21 17 12 17 25 31 34
1 4 4 5 6 7 8 11 14 19 23 25 25 28 30 32 34 35 38 39 37 35 33 34 35 38 40 42 41 43 39 13 20 21 24 18 16 12 13 18 24 32 34
8 7 8 11 12 15 15 16 19 20 21 21 21 24 25 25 21 25 32 33 30 32 32 31 31 33 34 36 39 34 24 15 18 20 16 14 13 13 16 22 20 23 35
12 14 17 19 21 21 22 20 20 21 19 18 21 22 20 18 18 22 26 30 30 30 31 31 33 31 35 32 33 26 19 19 21 18 15 14 11 15 24 20 24 23 27
17 16 16 21 28 30 30 28 25 24 24 24 27 26 26 23 21 20 21 26 29 31 34 31 33 31 32 28 26 21 21 25 23 18 16 10 15 17 20 24 27 24 26
31 32 32 31 32 35 37 36 32 30 29 29 31 32 30 25 23 21 19 20 25 29 30 31 30 32 29 28 25 24 28 30 24 17 12 14 18 22 25 29 27 27 25
37 39 42 44 40 33 39 41 40 38 35 36 36 36 34 30 27 23 19 19 21 26 28 28 30 27 28 30 26 26 32 32 22 15 13 14 16 22 32 27 28 28 25
35 35 36 38 34 31 31 42 43 41 41 43 43 42 39 35 30 25 23 22 22 24 28 28 28 27 31 30 29 33 34 26 19 15 12 15 22 33 30 26 24 21 20
34 34 35 35 34 33 27 26 37 43 45 48 49 49 43 38 33 30 28 26 27 27 29 30 29 31 31 32 35 35 30 21 18 14 12 17 26 31 25 24 22 20 19
21 23 24 24 24 26 26 24 27 33 35 42 48 51 47 39 35 33 32 30 31 34 35 34 33 32 34 36 38 35 28 19 16 15 17 21 29 29 23 22 23 24 20
18 20 21 21 20 19 20 23 25 25 23 25 27 35 44 42 38 37 35 36 38 38 37 37 35 34 36 39 38 32 21 14 13 16 20 24 27 22 21 22 23 22 21
13 16 19 20 17 15 15 17 18 18 19 21 25 29 32 34 34 34 36 39 41 41 40 38 36 37 40 38 29 20 18 15 13 18 19 25 22 20 20 20 21 18 18
12 14 16 16 16 16 17 15 13 13 12 11 10 13 16 20 26 32 34 36 38 40 41 41 42 43 39 30 18 14 9 12 17 16 22 22 21 20 21 19 17 19 19
16 17 19 20 20 20 18 18 17 18 20 21 21 20 20 20 22 26 31 35 37 40 42 44 43 36 31 17 9 7 10 13 14 19 23 21 22 24 21 20 17 18 17
14 15 17 19 19 19 20 23 23 23 22 21 20 20 18 17 18 19 21 28 35 36 38 40 30 21 13 7 8 9 14 11 17 20 19 19 22 20 19 21 22 19 17
20 20 21 21 22 23 25 26 25 25 24 22 22 25 26 26 30 31 32 26 29 34 34 32 24 16 13 10 11 15 11 11 19 18 17 20 20 17 15 15 17 19 17
20 19 16 17 21 25 26 26 26 27 27 27 23 24 24 24 25 26 26 27 31 33 32 24 16 13 7 11 13 13 13 17 19 19 18 17 16 14 14 17 15 18 17
17 16 19 23 26 27 25 24 26 25 22 22 23 22 21 21 22 22 22 23 19 22 16 11 11 9 16 13 10 14 15 19 19 18 17 16 16 15 16 13 15 17 18
14 15 20 24 24 23 22 21 22 24 21 20 19 20 19 18 16 10 10 13 11 9 10 6 15 20 13 9 11 17 16 19 17 17 15 15 14 13 15 14 15 14 16
16 21 22 17 16 17 16 16 17 16 17 17 13 11 9 7 8 10 5 1 2 8 19 16 11 10 12 11 15 16 15 17 17 16 14 11 10 12 12 11 13 14 17
Wind_Direction
283 272 245 239 239 237 236 235 235 234 230 228 227 228 232 231 236 240 239 236 234 236 237 242 241 241 245 249 249 248 247 252 250 248 252 254 267 267 260 262 298 305 299
275 269 254 246 239 238 237 237 238 235 234 231 232 232 235 237 240 243 243 244 240 238 238 241 244 243 246 248 248 249 251 253 247 247 249 265 271 263 260 280 284 292 306
277 275 249 249 235 232 233 234 234 235 233 231 230 232 234 238 241 244 247 249 248 246 244 246 250 250 250 251 250 249 250 248 241 240 236 211 259 271 263 270 289 288 308
282 271 242 246 240 241 234 232 233 234 233 230 232 233 236 239 244 246 248 251 253 253 252 249 248 252 253 253 254 256 254 246 242 228 236 261 259 271 258 267 285 294 309
287 271 238 240 241 235 233 231 233 234 233 233 234 236 238 244 249 252 256 258 258 258 257 255 255 258 256 255 255 257 250 252 232 182 254 252 260 257 259 279 276 301 308
336 290 255 248 241 232 231 236 236 237 237 236 239 241 244 247 250 255 261 266 265 263 261 258 258 261 263 266 258 260 255 240 190 216 257 257 261 258 272 289 302 309 312
345 285 246 229 227 230 234 241 246 248 248 247 249 250 250 251 255 261 265 268 268 271 274 269 263 263 271 267 261 258 257 211 249 201 223 242 253 261 278 288 306 307 307
115 150 174 199 213 218 224 232 236 236 238 241 246 251 254 257 261 263 265 266 268 271 273 277 268 262 267 265 262 258 233 250 195 212 223 233 244 259 270 299 309 312 304
280 270 252 246 248 250 249 245 250 240 237 239 244 249 252 253 261 271 271 269 266 267 271 269 269 265 268 268 259 242 215 221 216 216 223 224 236 250 283 292 305 300 295
268 265 262 258 253 253 250 247 247 249 247 245 245 240 238 244 258 268 274 276 273 267 268 272 270 268 272 268 251 221 228 198 208 215 218 232 256 293 302 307 297 284 284
314 297 295 282 265 256 252 250 246 245 240 250 249 236 236 251 255 266 277 273 269 263 263 267 274 268 266 260 233 228 212 203 205 212 226 252 299 303 310 298 293 285 282
327 323 315 308 293 271 252 248 250 248 250 258 255 251 247 252 253 262 278 285 276 268 265 261 263 265 259 236 233 227 206 211 212 225 247 291 307 312 296 294 295 289 285
311 306 304 301 300 284 266 251 245 252 256 259 258 255 251 253 254 260 271 279 277 266 259 256 257 250 240 240 238 221 211 213 222 237 270 298 308 295 289 297 292 289 285
311 311 310 301 299 292 281 254 249 254 258 261 260 257 254 256 256 258 261 268 272 264 257 257 251 245 236 241 223 209 214 218 232 245 278 294 302 307 289 292 290 284 278
318 320 316 311 304 298 287 277 262 261 264 267 266 260 258 255 256 255 259 264 268 264 258 257 248 241 240 230 213 213 217 230 242 257 276 286 305 282 286 284 281 276 269
331 342 341 329 323 312 304 291 280 280 273 270 270 265 259 256 256 259 261 262 269 263 253 248 242 240 232 220 215 219 225 237 249 260 273 288 293 281 278 277 277 278 266
342 351 348 344 337 327 305 294 295 292 285 287 284 269 262 255 256 257 258 260 262 263 253 243 238 234 219 209 213 218 227 234 253 263 278 287 275 275 275 274 276 270 257
1 360 356 358 359 353 338 330 325 313 301 291 283 277 272 265 264 264 266 265 265 260 252 239 232 221 211 209 212 217 223 239 266 280 279 275 277 278 273 266 272 268 255
5 5 4 3 0 354 352 345 349 350 342 328 304 284 274 270 274 278 276 271 266 257 245 234 225 212 206 206 205 213 240 266 277 284 284 281 276 275 273 269 267 258 259
358 354 353 345 341 343 337 331 326 319 315 312 307 300 296 297 293 286 281 275 272 256 239 228 217 203 195 201 207 235 274 289 290 292 281 275 272 269 264 259 259 255 261
332 332 329 331 331 331 332 327 324 322 317 306 302 296 292 295 298 295 290 288 274 250 234 223 192 187 182 185 199 257 287 293 300 288 274 270 268 267 253 246 251 258 256
320 321 322 325 323 321 322 322 322 321 313 309 308 310 307 304 295 283 272 262 256 244 233 203 195 200 194 216 271 287 287 291 290 283 273 263 261 259 255 250 245 248 250
328 336 340 349 347 343 334 329 328 323 321 318 316 314 308 305 300 290 273 258 247 235 199 179 179 199 240 280 303 312 298 295 294 288 275 266 260 246 255 264 249 244 239
333 338 339 336 336 334 326 322 323 319 320 320 322 316 311 313 305 291 271 254 212 177 189 227 191 228 283 284 290 282 286 290 295 285 276 263 254 241 258 265 244 237 244
325 329 328 328 327 332 332 324 325 324 322 325 321 316 313 307 294 240 187 172 150 168 177 239 279 295 286 285 288 264 277 292 284 278 274 262 260 246 259 253 245 238 235
312 317 325 329 333 335 333 332 328 322 321 313 304 294 270 203 172 170 179 251 295 300 308 301 299 301 301 294 268 257 285 283 271 279 278 265 242 259 255 253 250 244 233